SAS8TC EDDB-ENBR

Flight info

Callsign SAS8TC
Flight time N/A
Altitude 36000
Route SUKIP3Q/06R SUKIP M748 BUMIL DCT DOSUR DCT ELGIK DCT BADAB
Aircraft A321/M-SDE3FGHIRWY/LB1

Departure

Time N/A
Airport Berlin Brandenburg Airport (EDDB)

Arrival

Time 2026-04-30 19:11
Airport Bergen Airport, Flesland (ENBR)
Time Latitude Longitude Altitude Speed Heading
2026-04-30 17:39 52.27215 12.45069 20495 ft 396 kts 321°
2026-04-30 17:41 52.43452 12.19697 23969 ft 411 kts 325°
2026-04-30 17:42 52.47756 12.13510 24680 ft 415 kts 325°
2026-04-30 17:42 52.54295 12.04031 25706 ft 421 kts 324°
2026-04-30 17:43 52.58702 11.97616 26382 ft 425 kts 324°
2026-04-30 17:44 52.65423 11.87936 27395 ft 429 kts 327°
2026-04-30 17:44 52.72583 11.78954 28368 ft 433 kts 329°
2026-04-30 17:46 52.84727 11.63700 29837 ft 443 kts 327°
2026-04-30 17:47 52.94491 11.51136 31024 ft 443 kts 327°
2026-04-30 17:48 53.04231 11.38621 31440 ft 442 kts 327°
2026-04-30 17:48 53.11492 11.29267 31442 ft 442 kts 327°
2026-04-30 17:50 53.31663 11.06063 31440 ft 440 kts 329°
2026-04-30 17:52 53.46768 10.88495 31441 ft 441 kts 329°
2026-04-30 17:54 53.69406 10.61943 31461 ft 441 kts 328°
2026-04-30 17:56 53.89233 10.38380 31454 ft 441 kts 327°
2026-04-30 17:58 54.04247 10.20347 31443 ft 441 kts 327°
2026-04-30 18:00 54.23365 9.97174 31456 ft 440 kts 326°
2026-04-30 18:01 54.35818 9.81900 31866 ft 440 kts 326°
2026-04-30 18:02 54.43257 9.72739 32802 ft 438 kts 326°
2026-04-30 18:02 54.50652 9.63589 33702 ft 436 kts 326°
2026-04-30 18:03 54.57973 9.54487 34552 ft 434 kts 325°
2026-04-30 18:04 54.65298 9.45336 35262 ft 433 kts 325°
2026-04-30 18:05 54.75045 9.33123 36194 ft 432 kts 324°
2026-04-30 18:06 54.84759 9.20842 36462 ft 431 kts 326°
2026-04-30 18:08 55.03616 9.04882 36466 ft 431 kts 335°
2026-04-30 18:10 55.25366 8.86877 36485 ft 433 kts 335°
2026-04-30 18:11 55.44428 8.70916 36486 ft 434 kts 334°
2026-04-30 18:13 55.58035 8.59408 36488 ft 434 kts 334°
2026-04-30 18:14 55.71613 8.47869 36490 ft 434 kts 334°
2026-04-30 18:15 55.87923 8.33837 36497 ft 434 kts 334°
2026-04-30 18:16 55.98797 8.24424 36496 ft 434 kts 334°
2026-04-30 18:17 56.04231 8.19699 36497 ft 434 kts 334°
2026-04-30 18:18 56.12380 8.12600 36496 ft 434 kts 334°
2026-04-30 18:18 56.17805 8.07838 36500 ft 434 kts 334°
2026-04-30 18:19 56.23229 8.03056 36497 ft 434 kts 334°
2026-04-30 18:19 56.28658 7.98277 36500 ft 434 kts 334°
2026-04-30 18:20 56.34087 7.93477 36499 ft 434 kts 334°
2026-04-30 18:20 56.39511 7.88652 36496 ft 434 kts 334°
2026-04-30 18:21 56.44931 7.83822 36500 ft 435 kts 334°
2026-04-30 18:21 56.50354 7.78978 36497 ft 435 kts 334°
2026-04-30 18:22 56.55780 7.74112 36494 ft 435 kts 334°
2026-04-30 18:22 56.63909 7.66793 36493 ft 435 kts 334°
2026-04-30 18:23 56.69298 7.61923 36491 ft 435 kts 333°
2026-04-30 18:23 56.74716 7.57013 36490 ft 435 kts 333°
2026-04-30 18:24 56.82842 7.49619 36489 ft 435 kts 333°
2026-04-30 18:25 56.88253 7.44664 36491 ft 435 kts 333°
2026-04-30 18:25 56.96369 7.37209 36490 ft 435 kts 333°
2026-04-30 18:26 57.04488 7.29738 36488 ft 435 kts 333°
2026-04-30 18:27 57.12602 7.22216 36485 ft 435 kts 333°
2026-04-30 18:28 57.20711 7.14664 36485 ft 435 kts 333°
2026-04-30 18:28 57.28816 7.07087 36479 ft 435 kts 333°
2026-04-30 18:29 57.39607 6.96905 36480 ft 435 kts 332°
2026-04-30 18:30 57.50492 6.87109 36478 ft 435 kts 342°
2026-04-30 18:31 57.59249 6.82572 36476 ft 436 kts 343°
2026-04-30 18:32 57.68001 6.78006 36476 ft 435 kts 343°
2026-04-30 18:33 57.76758 6.73412 36469 ft 435 kts 343°
2026-04-30 18:33 57.85510 6.68813 36466 ft 436 kts 343°
2026-04-30 18:34 57.94231 6.64211 36472 ft 436 kts 343°
2026-04-30 18:35 58.00068 6.61111 36466 ft 436 kts 342°
2026-04-30 18:35 58.05911 6.57996 36464 ft 436 kts 342°
2026-04-30 18:36 58.14685 6.53309 36463 ft 437 kts 342°
2026-04-30 18:37 58.23463 6.48591 36460 ft 437 kts 342°
2026-04-30 18:37 58.29320 6.45435 36464 ft 437 kts 342°
2026-04-30 18:38 58.35171 6.42251 36463 ft 438 kts 342°
2026-04-30 18:38 58.41027 6.39067 36461 ft 438 kts 342°
2026-04-30 18:39 58.46887 6.35876 36461 ft 438 kts 342°
2026-04-30 18:39 58.52751 6.32648 36462 ft 438 kts 342°
2026-04-30 18:40 58.58565 6.29438 36461 ft 438 kts 342°
2026-04-30 18:40 58.64429 6.26215 36463 ft 438 kts 342°
2026-04-30 18:41 58.70289 6.22985 36468 ft 438 kts 341°
2026-04-30 18:41 58.76146 6.19735 36474 ft 438 kts 341°
2026-04-30 18:42 58.82001 6.16466 36476 ft 438 kts 341°
2026-04-30 18:42 58.90792 6.11561 36482 ft 438 kts 341°
2026-04-30 18:45 59.19595 5.97573 31232 ft 453 kts 346°
2026-04-30 18:45 59.22701 5.96396 30564 ft 451 kts 346°
2026-04-30 18:45 59.25765 5.95234 29973 ft 446 kts 346°
2026-04-30 18:46 59.28785 5.94083 29399 ft 440 kts 346°
2026-04-30 18:46 59.31777 5.92938 28832 ft 435 kts 346°
2026-04-30 18:46 59.34728 5.91801 28262 ft 429 kts 346°
2026-04-30 18:46 59.37643 5.90673 27708 ft 424 kts 346°
2026-04-30 18:47 59.40524 5.89558 27154 ft 420 kts 345°
2026-04-30 18:47 59.43383 5.88518 26609 ft 416 kts 349°
2026-04-30 18:47 59.46260 5.87989 26073 ft 414 kts 352°
2026-04-30 18:47 59.49115 5.87526 25536 ft 410 kts 352°
2026-04-30 18:48 59.51943 5.87071 25012 ft 407 kts 352°
2026-04-30 18:48 59.54758 5.86617 24499 ft 404 kts 352°
2026-04-30 18:48 59.57549 5.86164 23986 ft 401 kts 351°
2026-04-30 18:48 59.60317 5.85713 23443 ft 397 kts 351°
2026-04-30 18:49 59.63016 5.85269 22968 ft 391 kts 351°
2026-04-30 18:49 59.65710 5.84826 22513 ft 386 kts 351°
2026-04-30 18:49 59.68371 5.84387 22061 ft 383 kts 351°
2026-04-30 18:49 59.71019 5.83946 21625 ft 381 kts 351°
2026-04-30 18:50 59.73653 5.83509 21181 ft 379 kts 351°
2026-04-30 18:50 59.76275 5.83078 20747 ft 377 kts 351°
2026-04-30 18:50 59.78877 5.82651 20307 ft 375 kts 351°
2026-04-30 18:50 59.81476 5.82220 19853 ft 373 kts 350°
2026-04-30 18:51 59.84018 5.81454 19408 ft 368 kts 345°
2026-04-30 18:51 59.86531 5.80541 18957 ft 366 kts 345°
2026-04-30 18:51 59.89039 5.79633 18457 ft 364 kts 345°
2026-04-30 18:51 59.91524 5.78732 17984 ft 362 kts 345°
2026-04-30 18:52 59.94000 5.77838 17513 ft 361 kts 345°
2026-04-30 18:52 59.96461 5.76954 17043 ft 359 kts 345°
2026-04-30 18:52 59.98916 5.76071 16570 ft 358 kts 345°
2026-04-30 18:52 60.01359 5.75189 16092 ft 356 kts 345°
2026-04-30 18:53 60.03795 5.74307 15617 ft 355 kts 345°
2026-04-30 18:53 60.06221 5.73430 15140 ft 353 kts 345°
2026-04-30 18:53 60.08634 5.72557 14662 ft 352 kts 345°
2026-04-30 18:53 60.11038 5.71685 14173 ft 351 kts 345°
2026-04-30 18:54 60.13429 5.70814 13663 ft 348 kts 345°
2026-04-30 18:54 60.15816 5.70033 13183 ft 346 kts 346°
2026-04-30 18:54 60.18195 5.69358 12708 ft 343 kts 347°
2026-04-30 18:54 60.20552 5.68737 12238 ft 341 kts 348°
2026-04-30 18:55 60.22888 5.68130 11771 ft 336 kts 348°
2026-04-30 18:55 60.27476 5.66898 10986 ft 326 kts 347°
2026-04-30 18:55 60.29654 5.66297 10862 ft 313 kts 347°
2026-04-30 18:56 60.33900 5.65103 10367 ft 301 kts 347°
2026-04-30 18:56 60.35965 5.64517 10240 ft 299 kts 347°
2026-04-30 18:56 60.38019 5.63928 10092 ft 299 kts 347°
2026-04-30 18:57 60.42152 5.62741 9231 ft 298 kts 347°
2026-04-30 18:57 60.44198 5.62166 9082 ft 287 kts 347°
2026-04-30 18:57 60.46139 5.61624 8943 ft 276 kts 347°
2026-04-30 18:58 60.49849 5.61208 8531 ft 267 kts 355°
2026-04-30 18:58 60.51712 5.61258 8294 ft 261 kts 356°
2026-04-30 18:58 60.53476 5.61118 8219 ft 255 kts 345°
2026-04-30 18:59 60.56826 5.58967 8022 ft 251 kts 335°
2026-04-30 19:00 60.61200 5.53733 7166 ft 242 kts 315°
2026-04-30 19:00 60.62488 5.51586 6936 ft 237 kts 315°
2026-04-30 19:00 60.64468 5.46470 6646 ft 229 kts 295°
2026-04-30 19:01 60.66067 5.40872 6324 ft 227 kts 291°
2026-04-30 19:01 60.66541 5.37868 6157 ft 221 kts 276°
2026-04-30 19:02 60.66840 5.31664 5795 ft 218 kts 256°
2026-04-30 19:02 60.64952 5.27204 5468 ft 219 kts 201°
2026-04-30 19:03 60.61861 5.27033 5140 ft 225 kts 181°
2026-04-30 19:03 60.58748 5.27322 4802 ft 223 kts 180°
2026-04-30 19:04 60.55652 5.27615 4465 ft 222 kts 180°
2026-04-30 19:04 60.52592 5.27834 4124 ft 218 kts 187°
2026-04-30 19:05 60.50010 5.25033 3652 ft 216 kts 230°
2026-04-30 19:05 60.48529 5.19846 3181 ft 200 kts 238°
2026-04-30 19:06 60.46767 5.16544 3028 ft 158 kts 197°
2026-04-30 19:06 60.45728 5.16301 2957 ft 146 kts 176°
2026-04-30 19:06 60.43769 5.16944 2854 ft 140 kts 173°
2026-04-30 19:07 60.41865 5.17587 2531 ft 137 kts 172°
2026-04-30 19:07 60.40929 5.17904 2353 ft 135 kts 172°
2026-04-30 19:08 60.39089 5.18526 1976 ft 133 kts 172°
2026-04-30 19:08 60.37267 5.19141 1609 ft 132 kts 171°
2026-04-30 19:08 60.36361 5.19447 1429 ft 132 kts 171°
2026-04-30 19:09 60.34574 5.20050 1059 ft 130 kts 171°
2026-04-30 19:09 60.33673 5.20354 871 ft 131 kts 170°
2026-04-30 19:09 60.32776 5.20656 695 ft 130 kts 170°
2026-04-30 19:10 60.30996 5.21253 325 ft 129 kts 169°
2026-04-30 19:10 60.29383 5.21815 172 ft 83 kts 170°
2026-04-30 19:11 60.29044 5.21919 160 ft 20 kts 173°
2026-04-30 19:11 60.28914 5.22131 153 ft 14 kts 78°
2026-04-30 19:11 60.28921 5.22194 161 ft 0 kts 80°
2026-04-30 19:12 60.28923 5.22215 167 ft 6 kts 80°
2026-04-30 19:12 60.28926 5.22249 173 ft 2 kts 80°
2026-04-30 19:13 60.28948 5.22414 174 ft 4 kts 84°
2026-04-30 19:13 60.28937 5.22518 174 ft 2 kts 106°
2026-04-30 19:13 60.28933 5.22542 174 ft 0 kts 107°